Weather in Sorovo

Russia / Arkhangel'skaya Oblast'     61°16′48″N   48°28′50″E
temp.,
°C
wind,
m/s
gust,
m/s
humid.,
%
clouds,
%
prec.,
mm/h
press.,
hPa
HPBL,
m
17 june, thu
thu1700:00+8wnw27823 0.0 1012123
03:00+8wnw258696 0.0 1013133
06:00+12nw126276 0.0 1014359
09:00+16w244793 0.0 10141704
12:00+14wnw487084 1.1 10151334
15:00+14nw697016 2.1 10161342
18:00+12nnw69627 0.1 10191231
21:00+9nnw22770 0.1 102127
18 june, fri
fri1800:00+6wnw22880 0.0 102315
03:00+6wnw23840 0.0 102463
06:00+12w24585 0.0 1024293
09:00+17wsw473993 0.0 10231479
12:00+21wsw573153 0.0 10212067
15:00+19w2747100 0.0 1019370
18:00+15ese0167100 0.0 101915
21:00+14sse2387100 0.3 101853
19 june, sat
sat1900:00+14sw2993100 0.4 1016176
03:00+14wsw2993100 0.4 1016206
06:00+18wsw3107995 0.0 1016396
09:00+23wsw5104777 0.0 10141319
12:00+27w6113558 0.0 10131872
15:00+25w51152100 0.0 10131715
18:00+22nw41172100 0.4 1014691
21:00+17nw3119085 1.5 1016627
20 june, sun
sun2000:00+16nw398754 0.0 1018423
03:00+13nnw249693 0.0 102079
06:00+14ne138461 0.0 1022236
09:00+18ne215481 0.0 1022649
12:00+23s11403 0.0 10201051
15:00+25s13450 0.0 10191190
18:00+25se234968 0.0 1017782
21:00+19se310748 0.0 1017238
21 june, mon
mon2100:00+18s397646 0.0 1016195
03:00+17wsw28845 0.0 1016139
06:00+22w376218 0.0 1015261
09:00+25w375621 0.0 1015608
12:00+31wnw69316 0.0 10143004
15:00+31nw683496 0.0 10142942
18:00+27wnw385028 0.0 1014749
21:00+22nw3106532 0.0 1015268